Location: Costa Valle Imagna
(45.8000°N, 9.5000°E)
Time: 04:28:53
(UTC+00:00)

Cosmos 407 Rocket - Pass Details

Date: 17 February 2020
Orbit: 745 x 785 km, 74.0° (Epoch: 29 March)

Event Time Altitude Azimuth Distance (km) Brightness Sun altitude
Rises 04:44:54 0° 194° (SSW) 3,260 6.6 -17.6°
Reaches altitude 10° 04:47:18 10° 193° (SSW) 2,334 5.9 -17.2°
Maximum altitude 04:52:35 75° 109° (ESE) 812 3.7 -16.2°
Drops below altitude 10° 04:57:52 10° 25° (NNE) 2,331 6.3 -15.3°
Sets 05:00:15 0° 24° (NNE) 3,256 7.0 -14.9°
